Simultaneous Nadir Overpasses (SNOs) Predictions

Prediction of SNOs between NPP and PACE Satellite Orbit:

Table of predicted SNOs for the next 14.0 days since TLE Epoch: 10/5/2024
Index Date (NPP) Time (NPP) Lat,Lon (NPP) SZA (NPP ) Date (PACE) Time (PACE) Lat,Lon (PACE) SZA (PACE ) Distance(km) Time Diff (sec)
1 10/06/2024 05:57:18 -79.85,-126.73 93.11 10/06/2024 05:57:22 -79.86,-126.80 93.11 1.40 4
2 10/08/2024 09:32:55 79.93, -1.32 87.82 10/08/2024 09:33:27 79.92, -1.32 87.81 0.32 32
3 10/08/2024 10:23:33 -79.72, 167.93 92.53 10/08/2024 10:22:30 -79.72, 167.90 92.50 0.55 63
4 10/10/2024 13:08:32 -80.02, 123.88 91.22 10/10/2024 13:09:30 -80.01, 124.02 91.27 2.89 58
5 10/10/2024 13:59:11 79.84, -67.07 88.48 10/10/2024 13:58:34 79.84, -66.95 88.48 2.35 37
6 10/12/2024 17:34:45 -79.86, 58.88 90.71 10/12/2024 17:34:33 -79.86, 58.91 90.71 0.49 12
7 10/14/2024 21:10:19 79.88,-175.25 90.13 10/14/2024 21:10:30 79.88,-175.25 90.12 0.28 11
8 10/17/2024 00:45:54 -79.96, -49.85 88.98 10/17/2024 00:46:26 -79.95, -49.75 89.01 2.28 32



Historial Predications of SNOs between NPP and PACE
